• en France
  • Liste des pays
  • À 7 jours
  • Température de l'eau
  • Carte satellitaire
  • Carte météo
  • Widgets météo
  • user-avatar
    Se connecter

    Météo par heure à Uige

    Ce jour, 22 Septembre, Samedi

    Heure Température Précipitation Vent Pression Humidité
    00:00 +25°C° 0 mm 1 m/s 690 mmHg 71%
    01:00 +24°C° 0 mm 1 m/s 690 mmHg 75%
    02:00 +24°C° 0 mm 1 m/s 690 mmHg 77%
    03:00 +23°C° 0 mm 1 m/s 690 mmHg 79%
    04:00 +23°C° 0 mm 1 m/s 689 mmHg 81%
    05:00 +23°C° 0.3 mm 1 m/s 690 mmHg 79%
    06:00 +23°C° 0.3 mm 1 m/s 690 mmHg 78%
    07:00 +24°C° 0.3 mm 1 m/s 690 mmHg 77%
    08:00 +26°C° 0.1 mm 1 m/s 691 mmHg 68%
    09:00 +28°C° 0.1 mm 1 m/s 691 mmHg 59%
    10:00 +31°C° 0.1 mm 1 m/s 692 mmHg 51%
    11:00 +32°C° 0 mm 1 m/s 691 mmHg 47%
    12:00 +33°C° 0 mm 1 m/s 691 mmHg 43%
    13:00 +35°C° 0 mm 2 m/s 690 mmHg 39%
    14:00 +33°C° 0.2 mm 1 m/s 689 mmHg 42%
    15:00 +32°C° 0.2 mm 1 m/s 689 mmHg 46%
    16:00 +31°C° 0.2 mm 1 m/s 688 mmHg 50%
    17:00 +29°C° 1.9 mm 2 m/s 689 mmHg 59%
    18:00 +27°C° 1.9 mm 2 m/s 689 mmHg 68%
    19:00 +25°C° 1.9 mm 2 m/s 690 mmHg 78%
    20:00 +25°C° 0.4 mm 2 m/s 690 mmHg 80%
    21:00 +24°C° 0.4 mm 2 m/s 691 mmHg 82%
    22:00 +24°C° 0.4 mm 2 m/s 691 mmHg 85%
    23:00 +24°C° 0.1 mm 1 m/s 691 mmHg 86%

    Demain, 23 Septembre, Dimanche

    Heure Température Précipitation Vent Pression Humidité
    00:00 +23°C° 0.1 mm 1 m/s 691 mmHg 88%
    01:00 +23°C° 0.1 mm 1 m/s 690 mmHg 90%
    02:00 +22°C° 0 mm 1 m/s 690 mmHg 90%
    03:00 +22°C° 0 mm 1 m/s 690 mmHg 91%
    04:00 +20°C° 0 mm 2 m/s 690 mmHg 91%
    05:00 +21°C° 0 mm 2 m/s 690 mmHg 89%
    06:00 +21°C° 0 mm 2 m/s 690 mmHg 87%
    07:00 +21°C° 0 mm 2 m/s 691 mmHg 85%
    08:00 +24°C° 0 mm 2 m/s 691 mmHg 74%
    09:00 +27°C° 0 mm 2 m/s 692 mmHg 62%
    10:00 +29°C° 0 mm 2 m/s 692 mmHg 51%
    11:00 +31°C° 0 mm 2 m/s 692 mmHg 46%
    12:00 +34°C° 0 mm 2 m/s 691 mmHg 40%
    13:00 +35°C° 0 mm 2 m/s 691 mmHg 35%
    14:00 +35°C° 0.1 mm 2 m/s 690 mmHg 38%
    15:00 +34°C° 0.1 mm 2 m/s 690 mmHg 40%
    16:00 +32°C° 0.1 mm 2 m/s 689 mmHg 42%
    17:00 +30°C° 0.8 mm 2 m/s 689 mmHg 50%
    18:00 +29°C° 0.8 mm 2 m/s 690 mmHg 58%
    19:00 +27°C° 0.8 mm 2 m/s 690 mmHg 66%
    20:00 +26°C° 0 mm 2 m/s 690 mmHg 69%
    21:00 +25°C° 0 mm 2 m/s 691 mmHg 72%
    22:00 +24°C° 0 mm 2 m/s 691 mmHg 75%
    23:00 +24°C° 0 mm 2 m/s 691 mmHg 77%

    Après-demain, 24 Septembre, Lundi

    Heure Température Précipitation Vent Pression Humidité
    00:00 +23°C° 0 mm 2 m/s 691 mmHg 80%
    01:00 +21°C° 0 mm 2 m/s 690 mmHg 82%
    02:00 +21°C° 0 mm 2 m/s 690 mmHg 84%
    03:00 +20°C° 0 mm 2 m/s 690 mmHg 85%
    04:00 +20°C° 0 mm 2 m/s 689 mmHg 86%
    05:00 +20°C° 0 mm 2 m/s 690 mmHg 85%
    06:00 +20°C° 0 mm 2 m/s 691 mmHg 84%
    07:00 +20°C° 0 mm 2 m/s 691 mmHg 82%
    08:00 +24°C° 0 mm 2 m/s 692 mmHg 72%
    09:00 +26°C° 0 mm 2 m/s 692 mmHg 62%
    10:00 +28°C° 0 mm 2 m/s 693 mmHg 52%
    11:00 +30°C° 0 mm 2 m/s 692 mmHg 46%
    12:00 +32°C° 0 mm 2 m/s 691 mmHg 41%
    13:00 +35°C° 0 mm 2 m/s 691 mmHg 35%
    14:00 +34°C° 0 mm 2 m/s 690 mmHg 35%
    15:00 +34°C° 0 mm 2 m/s 690 mmHg 35%
    16:00 +34°C° 0 mm 2 m/s 689 mmHg 36%
    17:00 +31°C° 0 mm 2 m/s 689 mmHg 41%
    18:00 +30°C° 0 mm 2 m/s 690 mmHg 46%
    19:00 +28°C° 0 mm 2 m/s 690 mmHg 52%
    20:00 +27°C° 0 mm 2 m/s 690 mmHg 57%
    21:00 +26°C° 0 mm 2 m/s 691 mmHg 62%
    22:00 +25°C° 0 mm 2 m/s 691 mmHg 67%
    23:00 +24°C° 0 mm 2 m/s 691 mmHg 70%

    25 Septembre, Mardi

    Heure Température Précipitation Vent Pression Humidité
    00:00 +23°C° 0 mm 2 m/s 691 mmHg 74%
    01:00 +23°C° 0 mm 2 m/s 691 mmHg 78%
    02:00 +21°C° 0 mm 2 m/s 690 mmHg 80%
    03:00 +21°C° 0 mm 2 m/s 690 mmHg 82%
    04:00 +20°C° 0 mm 2 m/s 690 mmHg 83%
    05:00 +21°C° 0.1 mm 2 m/s 691 mmHg 82%
    06:00 +22°C° 0.1 mm 1 m/s 692 mmHg 80%
    07:00 +22°C° 0.1 mm 1 m/s 692 mmHg 79%
    08:00 +24°C° 0.1 mm 1 m/s 693 mmHg 71%
    09:00 +25°C° 0.1 mm 1 m/s 693 mmHg 64%
    10:00 +27°C° 0.1 mm 1 m/s 693 mmHg 56%
    11:00 +28°C° 0 mm 2 m/s 692 mmHg 53%
    12:00 +29°C° 0 mm 2 m/s 691 mmHg 49%
    13:00 +30°C° 0 mm 2 m/s 690 mmHg 45%
    14:00 +31°C° 0 mm 2 m/s 690 mmHg 44%
    15:00 +31°C° 0 mm 2 m/s 690 mmHg 42%
    16:00 +32°C° 0 mm 2 m/s 689 mmHg 41%
    17:00 +30°C° 0 mm 2 m/s 690 mmHg 46%
    18:00 +28°C° 0 mm 2 m/s 690 mmHg 52%
    19:00 +26°C° 0 mm 2 m/s 690 mmHg 57%
    20:00 +26°C° 0 mm 2 m/s 691 mmHg 61%
    21:00 +25°C° 0 mm 1 m/s 691 mmHg 65%
    22:00 +24°C° 0 mm 1 m/s 691 mmHg 68%
    23:00 +24°C° 0 mm 1 m/s 691 mmHg 72%

    26 Septembre, Mercredi

    Heure Température Précipitation Vent Pression Humidité
    00:00 +23°C° 0 mm 1 m/s 691 mmHg 76%
    01:00 +22°C° 0 mm 1 m/s 690 mmHg 80%
    02:00 +22°C° 0 mm 1 m/s 690 mmHg 83%
    03:00 +22°C° 0 mm 1 m/s 690 mmHg 86%
    04:00 +21°C° 0 mm 1 m/s 690 mmHg 89%
    05:00 +22°C° 0 mm 1 m/s 690 mmHg 86%
    06:00 +22°C° 0 mm 1 m/s 691 mmHg 84%
    07:00 +22°C° 0 mm 1 m/s 692 mmHg 82%
    08:00 +25°C° 0.1 mm 1 m/s 692 mmHg 69%
    09:00 +28°C° 0.1 mm 1 m/s 693 mmHg 56%
    10:00 +31°C° 0.1 mm 1 m/s 693 mmHg 44%
    11:00 +32°C° 0 mm 1 m/s 692 mmHg 41%
    12:00 +32°C° 0 mm 1 m/s 691 mmHg 38%
    13:00 +33°C° 0 mm 1 m/s 690 mmHg 36%
    14:00 +34°C° 0 mm 2 m/s 690 mmHg 36%
    15:00 +34°C° 0 mm 2 m/s 689 mmHg 36%
    16:00 +32°C° 0 mm 2 m/s 689 mmHg 36%
    17:00 +31°C° 0 mm 2 m/s 689 mmHg 41%
    18:00 +29°C° 0 mm 1 m/s 689 mmHg 46%
    19:00 +27°C° 0 mm 1 m/s 690 mmHg 51%
    20:00 +27°C° 0 mm 1 m/s 690 mmHg 54%
    21:00 +26°C° 0 mm 2 m/s 690 mmHg 57%
    22:00 +25°C° 0 mm 2 m/s 691 mmHg 60%
    23:00 +25°C° 0 mm 2 m/s 690 mmHg 64%

    27 Septembre, Jeudi

    Heure Température Précipitation Vent Pression Humidité
    00:00 +24°C° 0 mm 2 m/s 690 mmHg 69%
    01:00 +23°C° 0 mm 2 m/s 690 mmHg 74%
    02:00 +21°C° 0 mm 2 m/s 690 mmHg 76%
    03:00 +22°C° 0 mm 1 m/s 690 mmHg 79%
    04:00 +21°C° 0 mm 1 m/s 690 mmHg 82%
    05:00 +22°C° 0.1 mm 1 m/s 690 mmHg 80%
    06:00 +22°C° 0.1 mm 1 m/s 691 mmHg 79%
    07:00 +22°C° 0.1 mm 1 m/s 692 mmHg 77%
    08:00 +25°C° 0 mm 1 m/s 692 mmHg 64%
    09:00 +28°C° 0 mm 2 m/s 692 mmHg 52%
    10:00 +32°C° 0 mm 2 m/s 693 mmHg 40%
    11:00 +34°C° 0 mm 2 m/s 692 mmHg 36%
    12:00 +36°C° 0 mm 2 m/s 691 mmHg 32%
    13:00 +38°C° 0 mm 2 m/s 691 mmHg 28%
    14:00 +37°C° 0 mm 2 m/s 690 mmHg 30%
    15:00 +36°C° 0 mm 2 m/s 690 mmHg 31%
    16:00 +35°C° 0 mm 2 m/s 689 mmHg 33%
    17:00 +32°C° 0 mm 2 m/s 689 mmHg 37%
    18:00 +30°C° 0 mm 2 m/s 690 mmHg 42%
    19:00 +29°C° 0 mm 2 m/s 690 mmHg 46%
    20:00 +27°C° 0 mm 2 m/s 690 mmHg 50%
    21:00 +26°C° 0 mm 2 m/s 690 mmHg 55%
    22:00 +25°C° 0 mm 2 m/s 691 mmHg 59%
    23:00 +24°C° 0 mm 2 m/s 691 mmHg 63%
    Voir plus